星链-36918(STARLINK-36918)

导读

STARLINK-36918(NORAD编号67956)是美国SpaceX公司星链(Starlink)星座中的一颗低轨通信卫星,属于星链卫星互联网项目的组网卫星。 作为星链迭代后的卫星,它搭载相控阵天线,可同时连接多地面终端,单星通信容量大幅提升,采用多维度频谱优化技术提升利用率,部分配备星间激光链路实现低延迟数据传输。 它运行于近地轨道,是SpaceX构建全球宽带卫星互联网系统的组成部分,为全球范围提供高速互联网接入服务,星座整体后续仍在持续迭代拓展。

Basic Information
目录编号:
67956
目录名称:
STARLINK-36918
国际标识:
2026-037AA
轨道中心:
EARTH
卫星名称:
星链-36918
卫星全名:
星链-36918(STARLINK-36918)
卫星状态:
在轨 (已飞行193 天)
发射日期:
2026-02-24 UTC
国别 :
美国 (US)
星等 :
--
Orbit Information
数据来源 国际轨道数据
星历时间: 2026-09-05T09:26:28+0800
11小时前
查看轨道信息
半长轴: 6861.175km
偏心率: 0.0000571
轨道倾角: 42.996°
近地点辐角 278.736°
升交点赤经 257.677°
平近点角 81.343°
近地点: 482.646km
远地点: 483.43km
周期: 94.267分钟
每日圈数: 15.27584
Detailed Information
固有亮度:
5
最大亮度:
2.5
卫星平台:
Starlink V1.0
覆盖范围:
全球
运营商:
太空探索技术公司
运营商所在国:
美国
制造商(研发单位):
太空探索技术公司
制造商所在国:
美国
使用方式:
暂无
Satellite Introduction
Starlink 计划是 SpaceX 推出的全球卫星互联网项目,通过发射低轨道卫星,为全球尤其是偏远地区提供高速、低延迟的互联网服务。自 2019 年起,Starlink 已部署数千颗卫星,旨在缩小全球数字鸿沟,推动互联网普及。该项目还为军事、航空等行业提供通信支持,带来广泛经济效益。
2D Orbit Map
3D Orbit Map
Orbit Altitude Analysis Chart
Orbit Inclination Analysis Chart
Orbit Comprehensive Analysis Chart
View Comprehensive Chart
Conjunction Data List
Event ID Objects TCA Miss Dist (km) Collision Risk Probability Collision Risk Index (CRI) Action
CDM_260904-012405-484506-795622
2026-09-04T
01:24:44+0000
0.526 km
远距离
9.477731E-5 中风险 0.75
CDM_260905-120905-912406-795622
VSP ROSE (59124)
2026-09-05T
12:09:08+0000
1.714 km
极远距离
4.117758E-6 低风险 0.47
CDM_260906-121706-729706-795621
2026-09-06T
12:17:04+0000
1.732 km
极远距离
3.366589E-6 低风险 0.46
CDM_260903-235005-484506-795622
2026-09-03T
23:50:34+0000
1.802 km
极远距离
1.913608E-6 低风险 0.41